Regional Weather Roundup
Issued by NWS Northern Indiana

Home | Current Version | Previous Version | Graphics & Text | Print | Product List | Glossary On
Versions: 1 2 3 4 5 6 7 8 9 10 11 12 13 14 15 16 17 18 19 20 21 22 23 24 25 26 27 28 29 30 31 32 33 34 35 36 37 38 39 40 41 42 43 44 45 46 47 48 49 50
000
ASUS43 KIWX 271410
RWRIWX

KIWX WEATHER ROUNDUP
NATIONAL WEATHER SERVICE NORTHERN INDIANA
1000 AM EDT WED JUL 27 2016

NOTE: "FAIR" INDICATES FEW OR NO CLOUDS BELOW 12,000 FEET WITH NO
SIGNIFICANT WEATHER AND/OR OBSTRUCTIONS TO VISIBILITY.

* THESE STATIONS ARE NOT UNDER NWS QUALITY CONTROL. THEY ALSO MAY NOT
  REPORT WEATHER SUCH AS PRECIPITATION OR FOG.

INZ001>027-271500-
NORTHERN INDIANA

CITY           SKY/WX    TMP DP  RH WIND       PRES   REMARKS
GARY*          MOSUNNY   79  72  78 CALM      30.03S
VALPARAISO     SUNNY     79  69  71 W5        30.03F
MICHIGAN CITY* SUNNY     77  72  83 CALM      30.03F
LAPORTE*       SUNNY     79  72  78 CALM      30.04S
KNOX*          SUNNY     75  61  60 CALM      30.03S
SOUTH BEND     SUNNY     78  67  68 CALM      30.03F
ELKHART*       SUNNY     77  70  78 CALM      30.04
GOSHEN         SUNNY     78  64  61 CALM      30.03F
MONTICELLO*    SUNNY     76  65  67 CALM      30.02F
LOGANSPORT*    SUNNY     75  66  73 CALM      30.04F
ROCHESTER*     SUNNY     79  68  69 CALM      30.04F
WARSAW*        SUNNY     77  64  65 CALM      30.04F
ANGOLA*        SUNNY     79  66  65 CALM      30.04S
FORT WAYNE     MOSUNNY   80  66  62 VRB3      30.03F
HUNTINGTON*    SUNNY     76  66  72 CALM      30.03F
PERU/GRISSOM   SUNNY     79  66  64 VRB3      30.02F
MARION*        SUNNY     76  67  72 CALM      30.04F

$$
INZ028>050-271500-
CENTRAL INDIANA

CITY           SKY/WX    TMP DP  RH WIND       PRES   REMARKS
LAFAYETTE      SUNNY     79  70  74 NE5       30.02F
KOKOMO*        SUNNY     79  64  61 CALM      30.03F
MUNCIE*        SUNNY     80  67  64 N6        30.04F
INDIANAPOLIS   MOSUNNY   81  66  60 NE5       30.03F

$$
MIZ043>046-050>051-056>058-064>065-071>073-077>080-271500-
SOUTHWEST LOWER MICHIGAN

CITY           SKY/WX    TMP DP  RH WIND       PRES   REMARKS
BATTLE CREEK   SUNNY     75  64  68 S5        30.04F
BENTON HARBOR  SUNNY     77  66  68 S6        30.02F
COLDWATER*     SUNNY     76  67  71 CALM      30.04F
HOLLAND        SUNNY     79  69  71 SW7       30.02S
GRAND RAPIDS   MOSUNNY   77  66  68 SW6       30.02F
KALAMAZOO      SUNNY     78  62  57 VRB3      30.03F
STURGIS*       SUNNY     77  65  68 CALM      30.03F
THREE RIVERS*  FAIR      78  63  58 CALM      30.04F

$$
OHZ001>008-015>018-024>025-271500-
NORTHWEST OHIO

CITY           SKY/WX    TMP DP  RH WIND       PRES   REMARKS
DEFIANCE       SUNNY     80  65  59 CALM      30.04S
FINDLAY        SUNNY     81  61  50 S3        30.03F
TOLEDO EXPRESS SUNNY     80  64  58 W5        30.03S
TOLEDO METCALF SUNNY     81  63  54 W5        30.04S
LIMA           SUNNY     79  64  60 W3        30.04F

$$
AND FOR LAKE MICHIGAN COASTAL AND OPEN LAKE BUOY OBSERVATIONS

STATION/POSITION TEMP    WIND        PRES    VSBY  WAVE
                 AIR SEA DIR/SP/G                  HT/PER
                 (F)     (DEG/KT/KT) (MB)    (MI)  (FT/S)
CALUMET HARBOR    77     170/  1/  2 1016.0S
MICHIGAN CITY     74     200/  5/  6   N/A
BURNS HARBOR      75     240/  4/  5 1017.3S
SAINT JOSEPH      76     210/  3/  4 1016.6F
SOUTH LAKE BUOY   75 74  230/  8/  8 1015.3F         0
4 MI NW BRIDGMAN  74 76  200/  4/  4 1016.2F         0
MICHIGAN CITY     75 75  240/  4/  6   N/A           1

$$
&&




USA.gov is the U.S. government's official web portal to all federal, state and local government web resources and services.